Location: Miss�
(46.9484°N, 0.1922°W)
Time: 23:09:14
(UTC+00:00)

PSLV R/B - Pass Details

Date: 02 March 2021
Orbit: 566 x 599 km, 98.2° (Epoch: 14 April)

Event Time Altitude Azimuth Distance (km) Brightness Sun altitude
Rises 18:28:13 0° 18° (NNE) 2,810 7.2 -7.7°
Reaches altitude 10° 18:30:26 10° 23° (NNE) 1,900 6.3 -8.0°
Maximum altitude 18:34:28 53° 101° (E) 715 4.0 -8.7°
Drops below altitude 10° 18:38:25 10° 178° (S) 1,869 6.5 -9.4°
Sets 18:40:35 0° 183° (S) 2,758 7.4 -9.8°
